period_start,C,m1,H,J0,J1,J2,J3,J4,J5,JA,JB,JC,JD,JJ,JK,JN,#
2015-06-14 08:26:14,0.00,0.00,0.00,19.88,19.12,18.48,4.09,21.78,1008.11,1866.00,3224.59,3043.18,3313.04,307.62,306.45,0.00,0000 0000 0000 0000 000000
2015-06-14 08:31:15,0.00,0.00,0.00,19.91,19.13,20.30,4.62,24.27,1008.50,2070.90,3576.70,3376.36,3675.75,349.11,347.58,0.03,0000 0000 0000 0000 000000
2015-06-14 08:36:16,0.00,0.00,0.00,19.97,19.15,21.25,4.65,24.17,1008.79,2070.15,3575.35,3375.27,3674.36,349.72,348.14,0.06,0000 0000 0000 0000 000000
2015-06-14 08:41:18,0.00,0.00,0.00,20.10,19.20,21.68,4.72,24.29,1008.82,2070.01,3574.62,3374.74,3673.51,350.21,348.42,0.09,0000 0000 0000 0000 000000
2015-06-14 08:46:19,0.02,0.00,0.00,20.32,19.28,22.00,4.71,24.24,1009.02,2069.98,3573.92,3374.01,3672.70,349.96,348.24,0.12,0000 0000 0000 0000 000000
2015-06-14 08:51:20,-0.01,0.00,0.00,20.52,19.39,22.39,4.64,24.22,1009.28,2069.33,3573.10,3373.28,3671.67,349.54,347.78,0.15,0000 0000 0000 0000 000000
2015-06-14 08:56:21,0.04,0.00,0.00,20.71,19.54,22.80,4.72,24.29,1009.29,2068.98,3572.17,3372.30,3670.53,350.00,347.89,0.18,0000 0000 0000 0000 000000
2015-06-14 09:01:23,-0.03,0.00,0.00,20.89,19.71,23.24,4.72,24.25,1009.34,2068.34,3571.14,3371.27,3669.31,349.87,347.49,0.21,0000 0000 0000 0000 000000
2015-06-14 09:06:24,0.07,0.00,0.00,21.09,19.91,23.67,4.79,24.40,1009.60,2067.88,3570.14,3370.16,3667.95,350.27,347.80,0.24,0000 0000 0000 0000 000000
2015-06-14 09:11:25,0.00,0.00,0.00,21.33,20.14,24.08,4.68,24.36,1009.77,2067.07,3568.91,3368.87,3666.55,350.05,347.47,0.26,0000 0000 0000 0000 000000
2015-06-14 09:16:27,-0.01,0.00,0.00,21.56,20.38,24.50,4.64,24.31,1009.78,2066.32,3567.63,3367.52,3664.87,349.85,347.01,0.29,0000 0000 0000 0000 000000
2015-06-14 09:21:28,0.02,0.00,0.00,21.79,20.65,24.91,4.67,24.32,1009.80,2065.48,3566.03,3365.85,3663.05,350.23,346.98,0.32,0000 0000 0000 0000 000000
2015-06-14 09:26:29,-0.00,0.00,0.00,22.03,20.93,25.32,4.65,24.21,1009.97,2064.60,3564.57,3364.38,3661.24,349.93,346.49,0.35,0000 0000 0000 0000 000000
2015-06-14 09:31:31,0.03,0.00,0.00,22.26,21.22,25.70,4.73,24.24,1010.23,2063.64,3562.93,3362.59,3659.25,350.49,346.85,0.38,0000 0000 0000 0000 000000
2015-06-14 09:36:32,0.02,0.00,0.00,22.48,21.51,26.08,4.70,24.15,1010.27,2062.70,3561.24,3360.84,3657.21,350.34,346.55,0.41,0000 0000 0000 0000 000000
2015-06-14 09:41:33,-0.00,0.00,0.00,22.83,21.82,26.45,4.66,24.14,1010.28,2061.62,3559.53,3358.96,3655.10,350.21,345.93,0.44,0000 0000 0000 0000 000000
2015-06-14 09:46:34,0.01,0.00,0.00,23.35,22.13,26.83,4.70,24.16,1010.32,2060.51,3557.74,3357.01,3652.82,349.88,345.05,0.47,0000 0000 0000 0000 000000
2015-06-14 09:51:35,0.02,0.00,0.00,23.52,22.44,27.17,4.65,24.02,1010.61,2059.28,3555.85,3354.96,3650.46,349.82,344.88,0.50,0000 0000 0000 0000 000000
2015-06-14 09:56:36,0.03,0.00,0.00,23.61,22.76,27.48,4.71,23.95,1010.75,2058.02,3553.76,3352.87,3648.10,350.43,345.39,0.53,0000 0000 0000 0000 000000
2015-06-14 10:01:38,-0.01,0.00,0.00,23.63,23.06,27.75,4.74,23.84,1010.76,2056.89,3551.91,3350.91,3646.02,350.18,345.17,0.56,0000 0000 0000 0000 000000
2015-06-14 10:06:39,-0.04,0.00,0.00,23.69,23.35,27.96,4.72,23.73,1010.78,2055.74,3549.98,3349.03,3643.87,349.71,344.60,0.59,0000 0000 0000 0000 000000
2015-06-14 10:11:40,-0.01,0.00,0.00,23.78,23.62,28.12,4.75,23.79,1010.84,2054.70,3548.26,3347.27,3641.84,350.40,345.32,0.62,0000 0000 0000 0000 000000
2015-06-14 10:16:42,0.00,0.00,0.00,23.81,23.89,28.25,4.66,23.52,1011.01,2053.65,3546.54,3345.53,3639.86,350.11,344.87,0.64,0000 0000 0000 0000 000000
2015-06-14 10:21:43,0.02,0.00,0.00,23.85,24.13,28.28,4.70,23.78,1011.15,2052.72,3544.90,3343.85,3638.01,350.18,344.84,0.67,0000 0000 0000 0000 000000
2015-06-14 10:26:44,0.02,0.00,0.00,23.87,24.36,28.25,4.68,23.52,1011.23,2051.81,3543.46,3342.37,3636.22,350.17,345.01,0.70,0000 0000 0000 0000 000000
2015-06-14 10:31:45,0.02,0.00,0.00,23.86,24.57,28.15,4.62,23.42,1011.24,2050.91,3541.91,3340.82,3634.55,349.49,344.31,0.73,0000 0000 0000 0000 000000
2015-06-14 10:36:46,-0.00,0.00,0.00,23.87,24.77,28.20,4.76,23.52,1011.25,2050.05,3540.55,3339.46,3632.88,350.54,345.50,0.76,0000 0000 0000 0000 000000
2015-06-14 10:41:48,-0.03,0.00,0.00,23.87,24.95,28.29,4.64,23.42,1011.25,2049.17,3539.20,3338.01,3631.32,349.83,344.46,0.79,0000 0000 0000 0000 000000
2015-06-14 10:46:49,-0.00,0.00,0.00,23.87,25.13,28.37,4.72,23.59,1011.26,2048.34,3537.84,3336.63,3629.68,349.89,344.67,0.82,0000 0000 0000 0000 000000
2015-06-14 10:51:50,-0.02,0.00,0.00,23.86,25.29,28.45,4.71,23.49,1011.27,2047.58,3536.73,3335.50,3628.40,350.11,344.98,0.85,0000 0000 0000 0000 000000
2015-06-14 10:56:51,0.06,0.00,0.00,23.85,25.44,28.52,4.64,23.39,1011.27,2047.01,3535.62,3334.33,3627.09,349.34,344.22,0.88,0000 0000 0000 0000 000000
2015-06-14 11:01:53,0.02,0.01,0.00,23.86,25.58,28.57,4.66,23.42,1011.37,2046.70,3534.56,3333.32,3625.86,350.22,344.96,0.91,0000 0000 0000 0000 000000
2015-06-14 11:06:54,0.02,0.01,0.00,23.87,25.71,28.64,4.71,23.46,1011.51,2046.02,3533.57,3332.28,3624.67,350.17,344.92,0.94,0000 0000 0000 0000 000000
2015-06-14 11:11:55,-0.05,0.01,0.00,23.87,25.83,28.71,4.59,23.46,1011.66,2045.30,3532.56,3331.25,3623.59,349.23,344.28,0.97,0000 0000 0000 0000 000000
2015-06-14 11:16:57,0.07,0.01,0.00,23.87,25.95,28.78,4.68,23.53,1011.66,2044.99,3531.76,3330.38,3622.49,350.14,345.12,1.00,0000 0000 0000 0000 000000
2015-06-14 11:21:58,-0.06,0.01,0.00,23.87,26.06,28.85,4.71,23.52,1011.72,2044.21,3530.75,3329.47,3621.43,350.25,345.03,1.03,0000 0000 0000 0000 000000
2015-06-14 11:27:00,0.04,0.01,0.00,23.87,26.16,28.92,4.70,23.52,1011.72,2043.99,3529.98,3328.80,3620.59,350.21,345.36,1.05,0000 0000 0000 0000 000000
2015-06-14 11:32:00,-0.06,0.01,0.00,23.87,26.25,28.97,4.73,23.34,1011.72,2043.35,3529.18,3328.02,3619.71,350.51,345.41,1.08,0000 0000 0000 0000 000000
2015-06-14 11:37:02,0.04,0.01,0.00,23.89,26.34,29.04,4.71,23.37,1011.73,2043.00,3528.75,3327.28,3618.94,350.37,345.45,1.11,0000 0000 0000 0000 000000
2015-06-14 11:42:03,-0.05,0.01,0.00,23.90,26.43,29.09,4.70,23.48,1011.73,2042.64,3528.02,3326.88,3618.09,349.83,344.75,1.14,0000 0000 0000 0000 000000
2015-06-14 11:47:05,0.02,0.01,0.00,23.90,26.50,29.14,4.75,23.42,1011.73,2042.02,3527.19,3326.07,3617.29,349.82,344.63,1.17,0000 0000 0000 0000 000000
2015-06-14 11:52:06,0.06,0.01,0.00,23.90,26.57,29.18,4.63,23.37,1011.73,2041.98,3526.74,3325.44,3616.68,349.26,344.49,1.20,0000 0000 0000 0000 000000
2015-06-14 11:57:07,-0.07,0.01,0.00,23.91,26.64,29.23,4.67,23.48,1011.73,2041.53,3526.04,3324.98,3615.99,349.35,344.29,1.23,0000 0000 0000 0000 000000
2015-06-14 12:02:08,0.02,0.01,0.00,23.90,26.70,29.27,4.68,23.31,1011.73,2041.02,3525.75,3324.27,3615.28,349.84,344.80,1.26,0000 0000 0000 0000 000000
2015-06-14 12:07:10,0.02,0.01,0.00,23.90,26.77,29.32,4.69,23.39,1011.73,2040.98,3525.05,3323.96,3614.79,349.91,344.84,1.29,0000 0000 0000 0000 000000
2015-06-14 12:12:11,-0.00,0.01,0.00,23.91,26.82,29.36,4.75,23.48,1011.73,2040.64,3524.73,3323.29,3614.04,350.02,344.91,1.32,0000 0000 0000 0000 000000
2015-06-14 12:17:12,-0.05,0.01,0.00,23.92,26.88,29.39,4.71,23.52,1011.73,2040.11,3524.05,3323.00,3613.77,349.68,344.62,1.35,0000 0000 0000 0000 000000
2015-06-14 12:22:13,0.04,0.01,0.00,23.94,26.93,29.44,4.72,23.40,1011.73,2040.00,3523.76,3322.51,3613.03,350.44,345.37,1.38,0000 0000 0000 0000 000000
2015-06-14 12:27:15,0.03,0.01,0.00,23.95,26.97,29.49,4.72,23.37,1011.74,2039.99,3523.13,3322.02,3612.66,350.21,345.15,1.41,0000 0000 0000 0000 000000
2015-06-14 12:32:16,-0.02,0.01,0.00,23.96,27.02,29.53,4.72,23.37,1011.74,2039.83,3523.00,3321.96,3612.05,349.90,344.88,1.44,0000 0000 0000 0000 000000
2015-06-14 12:37:17,-0.05,0.01,0.00,23.97,27.06,29.56,4.72,23.39,1011.74,2039.34,3522.77,3321.41,3611.99,349.99,344.74,1.46,0000 0000 0000 0000 000000
2015-06-14 12:42:19,0.02,0.01,0.00,23.97,27.10,29.60,4.75,23.38,1011.73,2039.03,3522.09,3321.02,3611.28,349.61,344.63,1.49,0000 0000 0000 0000 000000
2015-06-14 12:47:20,0.00,0.01,0.00,23.97,27.14,29.63,4.75,23.34,1011.73,2039.01,3522.00,3321.00,3611.02,350.19,345.07,1.52,0000 0000 0000 0000 000000
2015-06-14 12:52:21,0.01,0.01,0.00,23.97,27.17,29.66,4.70,23.41,1011.73,2038.99,3521.99,3320.80,3610.96,350.36,345.18,1.55,0000 0000 0000 0000 000000
2015-06-14 12:57:23,0.03,0.01,0.00,23.97,27.21,29.70,4.64,23.48,1011.73,2038.95,3521.73,3320.25,3610.57,349.21,344.23,1.58,0000 0000 0000 0000 000000
2015-06-14 13:02:24,-0.07,0.01,0.00,23.98,27.24,29.72,4.72,23.37,1011.73,2038.58,3521.06,3320.01,3610.02,349.73,344.68,1.61,0000 0000 0000 0000 000000
2015-06-14 13:07:25,-0.03,0.00,0.00,23.96,27.27,29.76,4.70,23.35,1011.73,2038.10,3521.00,3319.99,3609.97,349.98,344.80,1.64,0000 0000 0000 0000 000000
2015-06-14 13:12:26,0.02,0.00,0.00,23.95,27.30,29.79,4.72,23.41,1011.73,2038.01,3520.95,3319.81,3609.66,349.61,344.47,1.67,0000 0000 0000 0000 000000
2015-06-14 13:17:28,0.04,0.01,0.00,23.95,27.32,29.81,4.69,23.43,1011.73,2038.00,3520.69,3319.18,3609.08,349.70,344.88,1.70,0000 0000 0000 0000 000000
2015-06-14 13:22:29,0.01,0.01,0.00,23.95,27.35,29.84,4.68,23.39,1011.73,2037.99,3520.05,3319.00,3608.99,349.95,345.01,1.73,0000 0000 0000 0000 000000
2015-06-14 13:27:30,-0.00,0.01,0.00,23.94,27.37,29.86,4.76,23.36,1011.73,2037.99,3520.00,3319.00,3608.96,349.69,344.56,1.76,0000 0000 0000 0000 000000
2015-06-14 13:32:31,0.00,0.01,0.00,23.94,27.40,29.87,4.81,23.40,1011.73,2037.96,3520.00,3318.98,3608.86,350.50,345.40,1.79,0000 0000 0000 0000 000000
2015-06-14 13:37:33,-0.01,0.01,0.00,23.94,27.41,29.88,4.74,23.38,1011.72,2037.82,3520.00,3318.85,3608.18,350.52,345.37,1.82,0000 0000 0000 0000 000000
2015-06-14 13:42:34,-0.03,0.01,0.00,23.93,27.43,29.90,4.68,23.36,1011.72,2037.39,3519.78,3318.30,3608.00,350.11,344.95,1.85,0000 0000 0000 0000 000000
2015-06-14 13:47:35,-0.01,0.01,0.00,23.93,27.45,29.92,4.75,23.38,1011.70,2037.05,3519.14,3318.01,3607.98,349.82,344.96,1.88,0000 0000 0000 0000 000000
2015-06-14 13:52:36,0.00,0.01,0.00,23.92,27.47,29.94,4.75,23.33,1011.72,2037.02,3519.04,3318.01,3607.91,350.20,345.28,1.90,0000 0000 0000 0000 000000
2015-06-14 13:57:37,0.01,0.01,0.00,23.90,27.48,29.95,4.74,23.32,1011.72,2037.01,3519.01,3317.99,3607.58,350.22,344.95,1.93,0000 0000 0000 0000 000000
2015-06-14 14:02:39,0.00,0.01,0.00,23.92,27.50,29.97,4.69,23.33,1011.70,2037.00,3519.00,3317.99,3607.25,349.57,344.54,1.96,0000 0000 0000 0000 000000
2015-06-14 14:07:40,0.00,0.01,0.00,23.94,27.51,30.00,4.70,23.36,1011.69,2037.00,3519.00,3317.97,3607.04,349.79,344.85,1.99,0000 0000 0000 0000 000000
2015-06-14 14:12:41,0.00,0.01,0.00,23.93,27.52,30.02,4.66,23.34,1011.67,2037.00,3518.99,3317.89,3607.00,349.62,344.64,2.02,0000 0000 0000 0000 000000
2015-06-14 14:17:42,0.01,0.01,0.00,23.92,27.53,30.05,4.79,23.37,1011.63,2037.00,3518.98,3317.75,3607.00,350.28,345.27,2.05,0000 0000 0000 0000 000000
2015-06-14 14:22:43,0.02,0.01,0.00,23.92,27.55,30.05,4.76,23.43,1011.64,2036.99,3518.81,3317.20,3606.99,350.15,345.06,2.08,0000 0000 0000 0000 000000
2015-06-14 14:27:45,0.00,0.01,0.00,23.92,27.55,30.08,4.76,23.32,1011.66,2036.98,3518.74,3317.11,3606.97,350.00,344.93,2.11,0000 0000 0000 0000 000000
2015-06-14 14:32:46,0.02,0.01,0.00,23.90,27.57,30.08,4.74,23.44,1011.67,2036.95,3518.15,3317.01,3606.75,350.19,345.05,2.14,0000 0000 0000 0000 000000
2015-06-14 14:37:47,-0.00,0.01,0.00,23.87,27.57,30.10,4.75,23.38,1011.70,2036.96,3518.07,3317.02,3606.70,349.88,344.92,2.17,0000 0000 0000 0000 000000
2015-06-14 14:42:48,0.00,0.01,0.00,23.88,27.57,30.13,4.76,23.32,1011.70,2036.92,3518.03,3317.00,3606.31,350.21,345.18,2.20,0000 0000 0000 0000 000000
2015-06-14 14:47:49,-0.01,0.01,0.00,23.87,27.59,30.12,4.69,23.23,1011.70,2036.80,3518.01,3317.00,3606.07,350.16,344.91,2.23,0000 0000 0000 0000 000000
2015-06-14 14:52:50,-0.01,0.01,0.00,23.87,27.60,30.14,4.67,23.29,1011.69,2036.76,3518.00,3317.00,3606.03,349.66,344.72,2.26,0000 0000 0000 0000 000000
2015-06-14 14:57:52,-0.00,0.01,0.00,23.85,27.60,30.19,4.70,23.32,1011.69,2036.64,3518.00,3316.99,3606.00,349.90,344.86,2.28,0000 0000 0000 0000 000000
2015-06-14 15:02:53,-0.02,0.01,0.00,23.84,27.60,30.19,4.72,23.33,1011.70,2036.48,3518.00,3316.98,3606.00,349.41,344.42,2.31,0000 0000 0000 0000 000000
2015-06-14 15:07:54,-0.04,0.01,0.00,23.84,27.61,30.22,4.70,23.30,1011.69,2036.37,3518.00,3316.98,3606.00,349.77,344.81,2.34,0000 0000 0000 0000 000000
2015-06-14 15:12:55,-0.01,0.00,0.00,23.82,27.62,30.21,4.70,23.27,1011.67,2036.18,3517.98,3316.96,3605.98,349.87,344.74,2.37,0000 0000 0000 0000 000000
2015-06-14 15:17:56,0.01,0.00,0.00,23.82,27.62,30.21,4.66,23.36,1011.60,2036.10,3517.98,3316.96,3605.98,349.45,344.42,2.40,0001 0000 0000 0000 000000
2015-06-14 15:22:58,0.00,0.00,0.00,23.81,27.62,30.25,4.72,23.34,1011.45,2036.06,3517.95,3316.93,3605.97,350.54,345.38,2.43,0001 0000 0000 0000 000000
2015-06-14 15:27:58,0.00,0.00,0.00,23.80,27.62,30.27,4.67,23.23,1011.43,2036.08,3517.98,3316.96,3605.98,349.68,344.65,2.46,0001 0000 0000 0000 000000
2015-06-14 15:32:59,0.00,0.00,0.00,23.80,27.62,30.26,4.75,23.31,1011.40,2036.02,3517.98,3316.92,3605.96,349.85,344.83,2.49,0001 0000 0000 0000 000000
2015-06-14 15:38:01,0.00,0.00,0.00,23.78,27.62,30.27,4.77,23.29,1011.33,2036.06,3517.98,3316.88,3605.93,350.32,345.27,2.52,0001 0000 0000 0000 000000
2015-06-14 15:43:02,0.00,0.00,0.00,23.77,27.62,30.25,4.80,23.23,1011.27,2036.03,3517.89,3316.63,3605.82,350.41,345.42,2.55,0001 0000 0000 0000 000000
2015-06-14 15:48:03,0.00,0.00,0.00,23.76,27.62,30.27,4.72,23.30,1011.28,2036.02,3517.91,3316.81,3605.91,350.39,345.26,2.58,0001 0000 0000 0000 000000
2015-06-14 15:53:04,0.00,0.00,0.00,23.76,27.62,30.29,4.75,23.31,1011.28,2036.02,3517.87,3316.80,3605.87,350.01,344.98,2.61,0001 0000 0000 0000 000000
2015-06-14 15:58:05,-0.01,0.00,0.00,23.77,27.62,30.30,4.73,23.30,1011.28,2036.02,3517.71,3316.61,3605.75,350.20,345.23,2.64,0000 0000 0000 0000 000000
2015-06-14 16:03:06,0.00,0.00,0.00,23.75,27.63,30.26,4.74,23.23,1011.28,2036.02,3517.69,3316.66,3605.77,349.77,344.80,2.67,0000 0000 0000 0000 000000
2015-06-14 16:08:07,0.01,0.00,0.00,23.72,27.63,30.26,4.68,23.27,1011.31,2036.03,3517.69,3316.68,3605.68,349.72,344.80,2.69,0000 0000 0000 0000 000000
2015-06-14 16:13:09,0.01,0.01,0.00,23.72,27.62,30.28,4.70,23.20,1011.28,2036.01,3517.79,3316.63,3605.45,350.02,345.05,2.72,0001 0000 0000 0000 000000
2015-06-14 16:18:10,0.02,0.01,0.00,23.72,27.62,30.28,4.70,23.27,1011.27,2036.02,3517.91,3316.81,3605.57,349.40,344.43,2.75,0001 0000 0000 0000 000000
2015-06-14 16:23:11,0.01,0.01,0.00,23.70,27.62,30.31,4.79,23.28,1011.27,2036.01,3517.58,3316.57,3605.22,349.89,344.91,2.78,0000 0000 0000 0000 000000
2015-06-14 16:28:12,-0.02,0.00,0.00,23.69,27.62,30.30,4.71,23.26,1011.27,2036.02,3517.86,3316.83,3605.60,349.67,344.86,2.81,0001 0000 0000 0000 000000
2015-06-14 16:33:13,-0.01,0.00,0.00,23.69,27.62,30.29,4.70,23.26,1011.27,2036.02,3517.95,3316.91,3605.57,349.97,344.92,2.84,0001 0000 0000 0000 000000
2015-06-14 16:38:14,-0.01,0.00,0.00,23.69,27.62,30.29,4.74,23.20,1011.26,2036.02,3517.99,3316.95,3605.75,350.06,345.15,2.87,0001 0000 0000 0000 000000
2015-06-14 16:43:15,-0.01,0.00,0.00,23.67,27.62,30.29,4.67,23.20,1011.25,2036.01,3517.98,3316.95,3605.73,350.05,345.22,2.90,0001 0000 0000 0000 000000
2015-06-14 16:48:17,-0.01,0.00,0.00,23.67,27.62,30.27,4.77,23.27,1011.26,2036.01,3517.97,3316.95,3605.62,349.95,345.02,2.93,0001 0000 0000 0000 000000
2015-06-14 16:53:18,-0.01,0.00,0.00,23.67,27.62,30.29,4.70,23.22,1011.27,2036.00,3517.97,3316.97,3605.49,349.79,344.87,2.96,0001 0000 0000 0000 000000
2015-06-14 16:58:19,-0.01,0.00,0.00,23.66,27.62,30.29,4.65,23.23,1011.27,2036.00,3517.96,3316.88,3605.22,349.54,344.64,2.99,0001 0000 0000 0000 000000
2015-06-14 17:03:20,-0.01,0.00,0.00,23.65,27.62,30.27,4.75,23.32,1011.26,2036.00,3517.94,3316.94,3605.49,350.24,345.33,3.02,0001 0000 0000 0000 000000
2015-06-14 17:08:21,-0.01,0.00,0.00,23.66,27.62,30.26,4.76,23.30,1011.26,2036.00,3517.98,3316.96,3605.43,350.19,345.29,3.05,0001 0000 0000 0000 000000
2015-06-14 17:13:22,-0.01,0.00,0.00,23.65,27.61,30.27,4.72,23.32,1011.27,2036.01,3517.99,3316.98,3605.46,349.87,345.09,3.08,0001 0000 0000 0000 000000
2015-06-14 17:18:23,-0.01,0.00,0.00,23.63,27.60,30.27,4.76,23.38,1011.29,2036.00,3517.99,3316.98,3605.58,350.19,345.29,3.10,0001 0000 0000 0000 000000
2015-06-14 17:23:24,-0.01,0.00,0.00,23.62,27.60,30.27,4.71,23.37,1011.29,2036.00,3517.98,3316.97,3605.26,350.15,345.20,3.13,0001 0000 0000 0000 000000
2015-06-14 17:28:25,-0.01,0.00,0.00,23.62,27.60,30.27,4.75,23.33,1011.27,2036.00,3517.99,3316.99,3605.78,349.97,345.10,3.16,0001 0000 0000 0000 000000
2015-06-14 17:33:26,-0.01,0.00,0.00,23.62,27.60,30.25,4.81,23.30,1011.27,2036.00,3517.99,3316.98,3605.64,350.26,345.48,3.19,0001 0000 0000 0000 000000
2015-06-14 17:38:27,-0.01,0.00,0.00,23.61,27.60,30.28,4.75,23.34,1011.26,2036.00,3517.98,3316.98,3605.32,350.13,345.27,3.22,0001 0000 0000 0000 000000
2015-06-14 17:43:28,-0.01,0.00,0.00,23.60,27.60,30.27,4.75,23.32,1011.26,2036.01,3517.99,3316.99,3605.73,350.18,345.25,3.25,0001 0000 0000 0000 000000
2015-06-14 17:48:29,-0.01,0.00,0.00,23.57,27.60,30.28,4.78,23.28,1011.26,2036.00,3517.99,3316.99,3605.89,350.29,345.42,3.28,0001 0000 0000 0000 000000
2015-06-14 17:53:30,-0.01,0.00,0.00,23.57,27.59,30.27,4.70,23.28,1011.25,2036.01,3517.99,3316.99,3605.73,349.96,345.15,3.31,0001 0000 0000 0000 000000
2015-06-14 17:58:31,-0.01,0.00,0.00,23.57,27.59,30.26,4.71,23.30,1011.26,2036.01,3517.99,3316.99,3605.77,350.54,345.69,3.34,0001 0000 0000 0000 000000
2015-06-14 18:03:32,-0.01,0.00,0.00,23.57,27.58,30.27,4.73,23.30,1011.26,2036.02,3517.99,3316.99,3605.96,350.08,345.27,3.37,0001 0000 0000 0000 000000
2015-06-14 18:08:33,-0.01,0.00,0.00,23.56,27.57,30.26,4.73,23.23,1011.26,2036.00,3517.98,3316.99,3605.96,349.99,345.20,3.40,0001 0000 0000 0000 000000
2015-06-14 18:13:34,-0.01,0.00,0.00,23.54,27.57,30.29,4.73,23.27,1011.27,2036.01,3517.98,3316.99,3605.94,350.06,345.24,3.43,0001 0000 0000 0000 000000
2015-06-14 18:18:35,-0.01,0.00,0.00,23.53,27.57,30.25,4.75,23.33,1011.25,2036.05,3517.99,3316.99,3605.96,350.03,345.24,3.46,0001 0000 0000 0000 000000
2015-06-14 18:23:36,-0.01,0.00,0.00,23.53,27.57,30.26,4.75,23.30,1011.25,2036.02,3517.96,3316.99,3605.89,350.19,345.41,3.49,0001 0000 0000 0000 000000
2015-06-14 18:28:37,-0.01,0.00,0.00,23.55,27.57,30.25,4.74,23.29,1011.25,2036.05,3517.98,3316.99,3605.99,350.24,345.45,3.51,0001 0000 0000 0000 000000
2015-06-14 18:33:38,-0.01,0.00,0.00,23.53,27.57,30.25,4.71,23.31,1011.25,2036.09,3517.98,3316.99,3605.97,350.10,345.33,3.54,0000 0000 0000 0000 000000
2015-06-14 18:38:38,0.00,0.00,0.00,23.52,27.56,30.26,4.72,23.16,1011.25,2036.13,3517.97,3316.99,3605.98,350.15,345.43,3.57,0000 0000 0000 0000 000000
2015-06-14 18:43:40,0.09,0.01,0.00,23.51,27.55,30.25,4.74,23.27,1011.26,2036.47,3517.97,3317.00,3605.99,350.06,345.17,3.60,0000 0000 0000 0000 000000
2015-06-14 18:48:41,-0.04,0.01,0.00,23.50,27.55,30.26,4.63,23.20,1011.25,2036.49,3517.99,3317.00,3605.99,349.76,345.04,3.63,0000 0000 0000 0000 000000
2015-06-14 18:53:42,-0.02,0.01,0.00,23.51,27.55,30.25,4.72,23.29,1011.25,2036.38,3517.98,3317.00,3605.99,349.63,344.80,3.66,0000 0000 0000 0000 000000
2015-06-14 18:58:43,-0.01,0.01,0.00,23.52,27.55,30.25,4.73,23.21,1011.25,2036.29,3517.97,3317.00,3605.98,349.77,345.21,3.69,0000 0000 0000 0000 000000
2015-06-14 19:03:44,0.05,0.01,0.00,23.50,27.55,30.23,4.67,23.27,1011.25,2036.47,3517.98,3317.00,3605.98,349.71,344.90,3.72,0000 0000 0000 0000 000000
2015-06-14 19:08:46,0.05,0.01,0.00,23.49,27.55,30.25,4.71,23.16,1011.25,2036.81,3517.99,3317.01,3605.99,349.80,345.36,3.75,0000 0000 0000 0000 000000
2015-06-14 19:13:47,-0.00,0.01,0.00,23.47,27.55,30.30,4.79,23.19,1011.25,2036.89,3517.99,3317.03,3605.99,350.46,345.70,3.78,0000 0000 0000 0000 000000
2015-06-14 19:18:48,-0.00,0.01,0.00,23.47,27.54,30.22,4.78,23.23,1011.25,2036.87,3517.98,3317.04,3605.99,350.34,345.70,3.81,0000 0000 0000 0000 000000
2015-06-14 19:23:49,-0.02,0.01,0.00,23.49,27.53,30.24,4.73,23.18,1011.25,2036.67,3517.97,3317.00,3605.99,350.02,345.08,3.84,0000 0000 0000 0000 000000
2015-06-14 19:28:50,0.03,0.01,0.00,23.48,27.52,30.21,4.70,23.19,1011.25,2036.88,3517.99,3317.02,3605.99,349.86,345.11,3.87,0000 0000 0000 0000 000000
2015-06-14 19:33:51,-0.04,0.01,0.00,23.47,27.52,30.22,4.71,23.25,1011.26,2036.78,3517.98,3317.01,3605.99,350.00,345.13,3.89,0000 0000 0000 0000 000000
2015-06-14 19:38:52,-0.01,0.01,0.00,23.47,27.52,30.26,4.74,23.13,1011.25,2036.65,3517.98,3317.01,3605.99,350.54,345.84,3.92,0000 0000 0000 0000 000000
2015-06-14 19:43:54,0.02,0.01,0.00,23.46,27.52,30.22,4.69,23.23,1011.25,2036.79,3517.99,3317.01,3605.99,350.13,345.09,3.95,0000 0000 0000 0000 000000
2015-06-14 19:48:55,0.02,0.01,0.00,23.47,27.52,30.19,4.69,23.17,1011.25,2036.80,3517.99,3317.01,3605.99,350.25,345.23,3.98,0000 0000 0000 0000 000000
2015-06-14 19:53:56,0.02,0.01,0.00,23.47,27.52,30.22,4.64,23.21,1011.25,2036.92,3517.99,3317.03,3605.99,349.46,344.85,4.01,0000 0000 0000 0000 000000
2015-06-14 19:58:57,-0.01,0.01,0.00,23.47,27.52,30.22,4.77,23.29,1011.25,2036.91,3517.99,3317.03,3605.99,350.06,345.63,4.04,0000 0000 0000 0000 000000
2015-06-14 20:03:59,0.01,0.01,0.00,23.45,27.52,30.18,4.71,23.23,1011.25,2036.87,3517.99,3317.06,3605.99,349.72,345.12,4.07,0000 0000 0000 0000 000000
2015-06-14 20:09:00,0.01,0.01,0.00,23.45,27.52,30.22,4.72,23.27,1011.25,2036.92,3518.00,3317.10,3605.99,350.48,345.72,4.10,0000 0000 0000 0000 000000
2015-06-14 20:14:01,0.00,0.01,0.00,23.45,27.51,30.21,4.79,23.28,1011.25,2036.96,3518.00,3317.13,3606.00,349.85,345.30,4.13,0000 0000 0000 0000 000000
2015-06-14 20:19:02,-0.01,0.01,0.00,23.45,27.50,30.19,4.70,23.26,1011.25,2036.98,3518.00,3317.29,3606.01,349.73,345.04,4.16,0000 0000 0000 0000 000000
2015-06-14 20:24:03,0.00,0.01,0.00,23.45,27.50,30.22,4.70,23.23,1011.25,2036.97,3517.99,3317.13,3606.00,349.43,344.92,4.19,0000 0000 0000 0000 000000
2015-06-14 20:29:04,-0.00,0.01,0.00,23.46,27.50,30.28,4.69,23.16,1011.25,2036.97,3517.99,3317.19,3606.00,350.29,345.61,4.22,0000 0000 0000 0000 000000
2015-06-14 20:34:06,0.00,0.01,0.00,23.45,27.50,30.23,4.77,23.21,1011.25,2036.99,3517.99,3317.21,3606.01,350.08,345.47,4.25,0000 0000 0000 0000 000000
2015-06-14 20:39:07,-0.01,0.01,0.00,23.43,27.50,30.24,4.83,23.27,1011.25,2036.99,3517.99,3317.33,3606.03,350.10,345.59,4.28,0000 0000 0000 0000 000000
2015-06-14 20:44:08,-0.01,0.01,0.00,23.42,27.50,30.19,4.82,23.18,1011.24,2036.99,3517.99,3317.35,3606.01,350.16,345.51,4.30,0000 0000 0000 0000 000000
2015-06-14 20:49:09,0.00,0.01,0.00,23.43,27.50,30.19,4.73,23.24,1011.24,2036.99,3517.99,3317.51,3606.03,349.91,345.24,4.33,0000 0000 0000 0000 000000
2015-06-14 20:54:10,0.00,0.01,0.00,23.44,27.50,30.22,4.81,23.25,1011.24,2036.99,3517.99,3317.34,3606.00,350.13,345.40,4.36,0000 0000 0000 0000 000000
2015-06-14 20:59:11,0.00,0.01,0.00,23.45,27.50,30.16,4.69,23.26,1011.24,2036.99,3517.99,3317.42,3606.00,349.58,345.01,4.39,0000 0000 0000 0000 000000
2015-06-14 21:04:13,-0.00,0.01,0.00,23.43,27.49,30.17,4.71,23.28,1011.23,2036.99,3517.99,3317.35,3606.00,349.92,345.44,4.42,0000 0000 0000 0000 000000
2015-06-14 21:09:14,-0.00,0.01,0.00,23.42,27.48,30.15,4.71,23.26,1011.21,2036.99,3518.01,3317.62,3606.00,349.66,344.99,4.45,0000 0000 0000 0000 000000
2015-06-14 21:14:15,0.00,0.01,0.00,23.43,27.47,30.14,4.85,23.27,1011.20,2036.98,3518.00,3317.63,3606.00,350.82,346.07,4.48,0000 0000 0000 0000 000000
2015-06-14 21:19:17,-0.01,0.01,0.00,23.43,27.47,30.21,4.73,23.30,1011.06,2036.98,3518.00,3317.75,3606.00,349.14,344.23,4.51,0000 0000 0000 0000 000000
2015-06-14 21:24:18,0.02,0.01,0.00,23.46,27.47,30.19,4.63,23.24,1010.93,2036.97,3518.00,3317.30,3606.00,349.66,344.96,4.54,0000 0000 0000 0000 000000